Wind_Speed
54 54 53 49 50 53 53 52 52 49 44 43 46 48 50 54 59 60 61 63 66 67 70 72 74 74 74 74 73 71 72 70 67 63 55 49 49 52 56 59 61 61 62 62
55 55 52 51 50 49 49 47 46 46 46 47 48 49 52 56 59 64 64 66 68 70 70 70 71 71 70 70 68 67 64 58 51 46 48 51 55 59 61 62 64 65 67 68
53 52 50 49 47 45 43 46 47 47 52 52 53 56 61 61 61 66 65 66 67 66 65 66 66 66 64 61 57 52 47 46 50 54 57 60 63 65 64 64 63 62 62 61
50 49 48 46 44 45 47 48 52 54 55 58 59 63 66 66 63 63 60 59 56 57 60 61 58 54 50 48 43 44 47 52 56 60 62 63 62 60 57 55 51 50 48 46
48 45 45 45 46 47 51 55 58 59 61 63 64 64 62 62 61 58 57 56 57 57 53 49 43 40 37 39 44 50 54 58 60 59 57 53 50 49 46 43 39 36 34 33
44 45 48 50 51 52 55 62 63 63 63 62 61 58 58 58 56 54 54 56 53 46 40 35 33 34 40 46 50 54 56 56 53 48 43 38 35 32 29 26 22 19 18 17
43 46 50 55 59 59 59 60 60 58 56 55 53 54 53 52 51 53 51 42 35 32 29 28 32 39 44 49 52 50 47 42 35 30 28 25 22 17 17 20 22 23 22 24
49 51 55 56 59 59 57 55 54 53 51 50 50 48 47 49 49 44 33 25 24 21 24 31 37 41 46 44 39 34 30 25 24 23 21 15 16 22 27 28 28 30 29 29
52 55 52 50 52 53 53 50 48 47 46 44 43 44 45 40 34 26 19 14 16 23 28 33 38 39 33 29 26 25 23 19 18 19 20 24 27 28 29 30 29 32 32 33
52 50 50 51 50 51 50 46 45 42 41 41 40 36 33 27 18 11 9 14 21 25 30 34 30 26 24 23 23 20 17 15 18 24 27 29 28 31 32 34 36 39 42 43
50 51 49 51 51 48 44 42 39 38 37 32 25 21 16 10 8 10 16 20 24 28 31 23 22 21 20 20 18 13 14 17 25 31 30 30 30 32 33 37 43 46 47 46
52 48 46 50 46 43 42 39 36 31 23 16 12 9 6 8 10 14 19 24 26 26 21 20 18 17 16 16 15 11 15 21 34 32 29 32 33 34 40 45 48 48 49 47
50 40 44 45 42 41 41 35 26 18 11 7 6 9 10 8 13 18 22 25 25 20 19 18 17 15 14 18 19 22 22 31 35 32 36 38 39 43 43 44 49 49 48 48
50 44 43 43 38 40 38 28 17 8 7 5 11 8 7 12 14 19 25 26 23 18 18 18 16 13 19 21 21 24 33 36 36 37 39 40 43 42 45 49 50 50 51 50
51 47 42 41 36 39 31 22 8 6 10 11 10 9 10 13 20 26 28 25 18 17 18 17 14 18 23 27 29 33 36 39 39 41 41 43 50 50 51 56 55 54 52 49
52 48 39 38 34 36 30 12 1 5 10 12 11 10 13 19 25 28 28 23 17 17 17 16 17 22 29 34 33 36 42 41 41 45 48 51 54 53 56 62 60 56 53 49
49 43 36 30 30 31 23 10 4 6 12 12 10 11 16 23 27 30 25 19 18 19 16 17 20 29 32 35 37 44 45 43 45 49 51 55 57 57 63 69 64 60 56 53
45 37 33 24 22 26 21 6 3 9 11 10 11 13 17 23 30 27 22 17 20 19 19 20 27 33 36 37 40 44 44 43 46 55 54 60 63 63 73 71 68 65 60 54
41 32 29 23 20 18 17 7 7 10 10 9 11 13 18 25 29 26 23 19 21 22 22 26 32 36 38 37 42 44 43 48 50 53 56 59 62 66 73 73 72 67 62 54
40 34 31 28 22 17 13 11 11 11 9 8 12 14 18 25 28 27 23 21 22 23 24 29 33 38 36 39 42 44 47 49 49 48 49 56 61 71 70 73 75 72 65 57
38 32 25 22 22 14 8 18 16 12 7 9 13 13 19 25 29 27 25 23 23 25 25 31 34 36 37 39 41 41 44 46 47 45 52 56 64 67 67 71 76 77 69 64
28 19 15 15 16 13 20 23 18 13 9 11 14 13 18 25 28 28 28 23 24 24 25 31 33 36 40 39 39 38 39 43 43 47 55 57 62 66 69 69 77 80 75 73
18 10 6 12 18 22 31 26 20 14 13 14 14 12 18 25 27 29 29 23 22 23 25 32 33 36 37 38 36 36 35 43 46 50 53 56 59 64 69 73 74 80 81 78
15 7 7 16 24 35 33 26 20 16 17 16 13 13 18 23 26 32 26 24 22 21 24 30 31 35 37 36 35 31 33 41 48 50 50 55 57 61 66 73 78 75 80 84
14 12 15 24 36 37 32 26 20 20 19 19 13 15 16 20 25 31 26 24 22 21 24 30 30 34 34 34 33 31 33 41 43 46 47 53 55 57 63 70 75 80 76 80
20 11 19 32 39 36 32 25 20 23 22 19 13 15 14 17 22 28 27 23 22 21 23 29 30 31 31 30 31 31 34 38 39 42 43 45 50 54 58 65 71 75 79 78
Wind_Direction
298 297 296 297 295 295 294 294 294 294 292 291 291 292 293 292 292 292 293 293 292 291 292 293 291 292 292 293 294 293 292 293 292 292 291 289 288 288 286 284 285 286 285 283
298 297 294 294 295 294 294 293 293 292 291 293 291 292 290 290 290 290 290 289 289 289 291 292 293 293 292 292 291 291 292 294 295 295 293 291 288 286 288 289 289 287 285 284
296 295 295 295 294 291 291 293 291 290 296 296 295 292 289 289 288 287 288 291 291 291 291 292 292 291 291 291 294 300 301 301 301 299 296 294 293 293 294 292 290 287 284 284
296 296 295 294 292 292 292 291 290 290 292 294 295 294 294 295 295 295 297 297 296 294 294 295 293 294 297 302 305 305 303 300 297 296 297 297 298 297 294 292 291 289 288 287
297 295 293 292 293 294 295 294 294 294 293 297 298 297 298 300 300 299 300 300 299 300 298 296 297 304 309 309 307 303 300 298 299 302 302 300 299 296 298 298 297 296 296 294
293 295 296 295 295 294 295 296 297 298 299 297 296 297 299 300 301 302 300 300 301 299 302 306 314 313 308 304 300 301 304 305 306 304 303 301 303 310 309 310 315 318 314 311
297 299 298 300 299 297 296 296 298 297 296 297 300 300 298 299 302 301 302 303 301 306 311 314 311 306 303 304 307 308 305 310 314 316 315 321 326 333 355 358 352 348 341 335
299 300 304 305 305 306 307 304 300 298 297 299 299 297 299 301 300 300 301 300 304 318 317 312 306 307 308 309 310 314 322 333 332 336 346 11 30 23 14 6 0 353 347 339
306 308 312 312 310 308 304 302 299 298 299 298 296 298 297 295 297 299 304 328 328 318 312 311 312 311 314 323 330 336 339 341 0 40 47 40 32 27 21 15 7 356 350 342
311 314 319 316 315 311 307 305 305 306 304 301 303 297 296 299 296 313 341 330 322 323 321 318 321 328 337 341 345 348 353 28 55 46 47 47 37 29 21 10 2 355 350 340
318 324 326 318 315 311 312 314 313 308 303 306 298 300 305 315 2 6 341 328 336 330 322 333 342 350 357 1 3 15 50 70 62 52 49 41 31 23 16 5 358 352 343 333
324 329 323 317 315 316 320 320 318 313 315 301 305 313 0 46 9 343 337 343 340 333 346 354 3 14 19 28 31 53 64 73 69 53 42 36 27 18 14 6 355 344 339 332
326 331 325 320 321 324 327 330 330 325 321 338 4 57 60 17 357 350 351 350 350 358 5 16 23 27 34 49 58 77 74 72 64 51 43 34 26 20 12 2 353 348 342 334
333 334 327 326 330 331 340 343 334 353 39 70 97 76 31 12 4 4 0 2 6 12 22 37 40 49 60 64 80 82 76 65 59 49 42 36 30 19 11 2 358 354 346 339
334 332 331 329 336 339 350 340 359 90 133 129 101 54 16 15 13 9 6 12 24 28 43 51 56 66 74 76 81 75 67 64 56 47 41 36 30 21 12 10 4 357 350 346
332 330 330 330 335 342 351 340 253 169 144 109 68 32 20 16 16 13 15 31 32 47 61 67 75 80 82 82 77 72 67 60 58 48 44 37 31 22 17 16 9 2 359 357
329 325 325 329 332 337 345 337 302 168 114 83 62 32 18 19 19 17 30 36 40 59 73 81 87 88 84 88 78 74 66 60 54 47 43 39 34 27 25 20 12 11 8 8
324 320 316 318 322 328 340 310 246 138 104 81 52 29 19 25 25 29 43 47 49 67 81 87 95 91 91 83 78 74 68 62 55 49 45 41 36 31 30 22 18 17 16 14
317 310 301 301 304 309 326 242 192 148 97 75 57 26 18 32 31 47 48 53 61 71 88 96 95 97 92 84 80 76 73 63 55 51 44 38 37 36 33 27 24 23 24 23
316 304 289 280 275 285 308 198 181 138 109 78 57 30 20 28 41 51 53 60 69 78 91 102 100 98 93 85 79 73 68 64 58 52 42 41 40 39 36 33 31 29 31 33
315 303 290 265 246 246 229 179 175 137 127 89 61 31 26 29 51 52 56 59 72 79 95 110 103 97 96 86 78 72 68 64 57 52 45 44 43 41 39 38 38 35 37 42
316 306 282 242 214 198 175 170 164 136 132 98 67 37 35 34 58 57 59 65 80 88 104 113 104 103 97 88 82 74 70 64 59 55 52 47 46 45 42 43 43 41 41 47
332 333 276 198 174 165 160 166 147 138 134 101 77 48 45 42 62 64 63 74 86 95 110 113 107 108 105 93 85 77 71 66 62 57 56 52 48 48 44 46 46 47 46 49
8 51 127 154 156 155 159 158 139 145 129 108 85 60 48 46 61 67 71 79 87 95 115 121 112 112 105 95 89 82 76 68 62 60 56 55 50 50 49 46 49 49 51 54
43 90 130 145 149 151 157 149 142 144 127 112 94 72 55 45 58 68 75 81 91 99 120 124 116 112 107 101 93 86 79 69 63 63 59 57 54 51 51 52 48 50 53 58
51 95 146 149 149 153 152 146 147 143 133 123 108 85 68 50 53 66 74 84 92 100 124 128 118 112 108 105 95 91 84 76 67 62 62 61 59 54 53 53 55 53 53 57
Height
10655 10648 10642 10637 10631 10624 10618 10613 10607 10605 10603 10599 10591 10585 10580 10572 10563 10559 10554 10546 10538 10531 10525 10519 10510 10506 10498 10491 10484 10477 10470 10465 10459 10454 10450 10443 10437 10431 10424 10418 10413 10410 10405 10401
10644 10638 10632 10627 10622 10614 10608 10603 10598 10592 10589 10587 10581 10575 10568 10562 10555 10545 10540 10533 10525 10518 10513 10504 10496 10488 10482 10476 10468 10462 10456 10450 10445 10440 10434 10429 10422 10415 10408 10404 10399 10393 10387 10381
10632 10626 10621 10616 10611 10605 10600 10593 10587 10584 10574 10572 10567 10559 10552 10552 10544 10531 10527 10519 10510 10504 10498 10490 10482 10474 10467 10462 10455 10449 10443 10437 10431 10424 10417 10411 10404 10397 10392 10385 10379 10374 10367 10363
10621 10616 10610 10606 10601 10594 10588 10583 10576 10570 10565 10559 10552 10545 10536 10529 10525 10514 10510 10503 10497 10490 10483 10475 10468 10461 10455 10449 10444 10439 10433 10427 10418 10411 10404 10397 10389 10381 10374 10367 10363 10357 10354 10350
10612 10606 10601 10596 10590 10584 10575 10567 10561 10556 10551 10545 10535 10528 10521 10513 10507 10501 10494 10488 10481 10476 10469 10463 10457 10452 10447 10442 10437 10430 10421 10414 10406 10399 10391 10382 10375 10367 10362 10356 10351 10347 10342 10338
10604 10597 10589 10582 10578 10574 10566 10553 10547 10541 10534 10528 10519 10515 10508 10501 10495 10489 10482 10475 10469 10463 10460 10455 10450 10446 10441 10435 10428 10420 10411 10401 10394 10386 10379 10372 10366 10360 10356 10351 10346 10340 10335 10331
10596 10589 10580 10571 10562 10559 10553 10545 10535 10527 10520 10514 10508 10502 10496 10490 10484 10477 10471 10466 10461 10458 10455 10451 10447 10441 10435 10427 10418 10409 10400 10393 10385 10378 10371 10366 10362 10358 10352 10345 10339 10333 10328 10323
10585 10580 10570 10562 10549 10540 10535 10527 10519 10512 10506 10501 10496 10490 10487 10481 10474 10468 10465 10461 10459 10456 10452 10448 10442 10434 10426 10418 10410 10401 10394 10387 10379 10374 10369 10365 10360 10353 10347 10342 10335 10329 10322 10315
10573 10566 10560 10552 10542 10528 10520 10512 10506 10499 10496 10491 10486 10482 10475 10471 10467 10464 10462 10460 10457 10454 10449 10442 10435 10427 10419 10412 10403 10396 10389 10383 10379 10374 10368 10362 10357 10353 10347 10341 10334 10327 10318 10308
10562 10556 10548 10537 10528 10517 10507 10500 10494 10491 10484 10480 10477 10471 10467 10465 10464 10462 10462 10459 10455 10450 10443 10436 10428 10421 10414 10407 10400 10394 10388 10385 10380 10374 10368 10362 10358 10351 10345 10338 10329 10319 10307 10297
10554 10545 10536 10525 10514 10504 10497 10491 10486 10481 10475 10472 10467 10465 10464 10463 10463 10461 10459 10456 10452 10445 10437 10430 10424 10417 10411 10405 10400 10395 10391 10386 10380 10376 10372 10366 10359 10351 10342 10333 10323 10311 10299 10287
10545 10538 10527 10515 10504 10496 10490 10483 10477 10471 10468 10464 10464 10464 10464 10464 10462 10461 10457 10453 10447 10439 10433 10427 10421 10415 10411 10407 10402 10397 10394 10388 10380 10379 10375 10366 10358 10349 10338 10328 10318 10304 10289 10274
10538 10531 10520 10507 10497 10490 10483 10476 10470 10466 10465 10464 10464 10466 10466 10464 10462 10459 10455 10449 10442 10436 10431 10425 10420 10416 10413 10409 10403 10399 10395 10391 10384 10381 10374 10366 10357 10347 10337 10326 10311 10294 10277 10260
10530 10522 10513 10502 10494 10486 10478 10472 10468 10467 10466 10466 10466 10468 10465 10462 10460 10456 10451 10445 10438 10435 10430 10425 10421 10419 10416 10410 10406 10404 10399 10394 10388 10383 10376 10368 10359 10349 10336 10323 10305 10285 10266 10248
10523 10515 10508 10497 10492 10484 10478 10472 10470 10468 10467 10467 10468 10467 10465 10462 10459 10454 10447 10441 10437 10434 10430 10426 10424 10422 10418 10414 10411 10409 10404 10398 10392 10387 10380 10371 10359 10347 10335 10317 10298 10279 10259 10238
10517 10508 10503 10493 10488 10482 10477 10474 10471 10469 10469 10470 10471 10469 10466 10462 10458 10452 10445 10440 10437 10434 10432 10429 10428 10425 10422 10419 10417 10414 10408 10403 10398 10392 10383 10372 10360 10350 10335 10315 10295 10275 10252 10231
10512 10504 10499 10493 10487 10481 10479 10475 10474 10472 10473 10473 10472 10470 10466 10463 10459 10451 10444 10442 10439 10436 10435 10433 10432 10429 10426 10425 10423 10418 10414 10410 10404 10395 10386 10376 10366 10353 10335 10315 10296 10273 10250 10228
10503 10497 10492 10490 10486 10481 10479 10477 10477 10477 10477 10475 10473 10471 10468 10465 10459 10452 10447 10445 10442 10440 10439 10438 10437 10434 10433 10432 10429 10425 10421 10417 10410 10400 10394 10384 10370 10356 10336 10321 10298 10274 10252 10231
10493 10488 10483 10484 10481 10480 10479 10478 10479 10479 10480 10477 10475 10473 10470 10466 10461 10454 10451 10450 10446 10445 10444 10444 10442 10440 10440 10439 10436 10433 10428 10422 10416 10409 10403 10393 10378 10360 10343 10327 10305 10283 10261 10240
10480 10476 10472 10473 10474 10474 10475 10478 10480 10482 10482 10480 10478 10476 10473 10468 10463 10456 10455 10453 10451 10450 10450 10450 10448 10447 10447 10446 10443 10440 10435 10430 10425 10420 10415 10400 10386 10367 10354 10339 10317 10295 10273 10252
10466 10460 10458 10459 10463 10469 10472 10476 10480 10483 10484 10482 10481 10480 10476 10472 10465 10460 10459 10458 10457 10457 10457 10456 10455 10454 10455 10453 10450 10447 10443 10438 10434 10430 10421 10408 10394 10380 10367 10352 10331 10310 10288 10267
10453 10449 10448 10450 10456 10464 10469 10475 10481 10484 10485 10484 10484 10483 10479 10476 10469 10465 10463 10464 10464 10464 10464 10463 10463 10462 10462 10461 10458 10455 10451 10447 10443 10437 10428 10418 10407 10394 10380 10365 10346 10327 10306 10285
10444 10441 10442 10446 10452 10460 10469 10475 10482 10486 10487 10486 10487 10486 10482 10480 10474 10469 10469 10471 10471 10470 10470 10470 10470 10469 10467 10467 10465 10462 10460 10456 10451 10445 10437 10431 10420 10408 10395 10379 10364 10347 10329 10307
10439 10438 10441 10447 10453 10461 10470 10478 10483 10488 10488 10489 10491 10489 10487 10484 10480 10474 10475 10477 10478 10478 10477 10477 10477 10476 10475 10474 10473 10471 10468 10465 10459 10454 10449 10442 10434 10424 10411 10398 10383 10368 10355 10334
10442 10443 10446 10451 10457 10466 10474 10481 10486 10490 10491 10492 10494 10493 10491 10489 10486 10480 10481 10482 10484 10485 10484 10483 10483 10483 10482 10482 10481 10479 10477 10472 10469 10465 10461 10455 10449 10440 10430 10416 10404 10391 10379 10362
10450 10451 10453 10456 10463 10471 10478 10485 10489 10492 10494 10496 10498 10497 10495 10495 10491 10487 10486 10487 10489 10490 10491 10491 10491 10490 10490 10490 10489 10488 10486 10482 10479 10476 10473 10468 10463 10456 10447 10437 10425 10414 10403 10389